FW7196 Weather Reports


Display with metric or nautical units.
time (UTC)temp
F
wind
direction
speed
MPH
gust
MPH
rain 1hr
in
rain 24hr
in
rain mn
in
humidity
%
barometer
mb
20260905223041 66 0 0.0 3.0 0.00 0.00 0.00 81 1012.3
20260905221542 66 0 0.0 2.0 0.00 0.00 0.00 81 1012.2
20260905220048 67 0 0.0 0.0 0.00 0.00 0.00 82 1012.2
20260905214545 67 0 0.0 0.0 0.00 0.00 0.00 81 1011.9
20260905213043 67 0 0.0 0.0 0.00 0.00 0.00 79 1011.8
20260905211543 67 0 0.0 0.0 0.00 0.00 0.00 78 1011.6
20260905210049 68 0 0.0 1.0 0.00 0.00 0.00 76 1011.6
20260905204544 69 0 0.0 1.0 0.00 0.00 0.00 76 1011.5
20260905203043 69 0 0.0 3.0 0.00 0.00 0.00 73 1011.5
20260905201542 70 217 0.0 3.0 0.00 0.00 0.00 71 1011.5
20260905200048 71 0 0.0 3.0 0.00 0.00 0.00 71 1011.5
20260905194541 71 0 0.0 3.0 0.00 0.00 0.00 74 1011.4
20260905193046 69 338 0.0 2.0 0.00 0.00 0.00 75 1011.4
20260905191548 69 0 0.0 4.0 0.00 0.00 0.00 75 1011.5
20260905190059 69 0 0.0 2.0 0.00 0.00 0.00 73 1011.6
20260905184558 69 340 0.0 4.0 0.00 0.00 0.00 75 1011.6
20260905183043 68 6 0.0 2.0 0.00 0.00 0.00 75 1011.5
20260905181542 69 0 0.0 3.0 0.00 0.00 0.00 74 1011.5
20260905180050 69 0 0.0 3.0 0.00 0.00 0.00 74 1011.6
20260905174558 69 0 0.0 2.0 0.00 0.00 0.00 74 1011.6
20260905173041 69 0 0.0 3.0 0.00 0.00 0.00 74 1011.6
20260905171540 69 353 0.0 3.0 0.00 0.00 0.00 74 1011.3
20260905170044 69 0 0.0 5.0 0.00 0.00 0.00 75 1011.4
20260905164544 68 348 0.0 3.0 0.00 0.00 0.00 79 1011.4
20260905163050 69 0 0.0 3.0 0.00 0.00 0.00 75 1011.4
20260905161544 68 0 0.0 3.0 0.00 0.00 0.00 80 1011.5
20260905160044 67 126 0.0 2.0 0.00 0.00 0.00 82 1011.5
20260905154552 67 113 0.0 6.0 0.00 0.00 0.00 79 1011.5
20260905153046 68 311 1.0 3.0 0.00 0.00 0.00 76 1011.5
20260905151544 67 0 0.0 3.0 0.00 0.00 0.00 80 1011.5
20260905150043 67 17 1.0 6.0 0.00 0.00 0.00 80 1011.5
20260905144546 65 0 0.0 2.0 0.00 0.00 0.00 84 1011.4
20260905143043 65 0 0.0 5.0 0.00 0.00 0.00 86 1011.6
20260905141546 63 0 0.0 3.0 0.00 0.00 0.00 88 1011.4
20260905140047 63 0 0.0 4.0 0.00 0.00 0.00 90 1011.6
20260905134541 62 0 0.0 2.0 0.00 0.00 0.00 91 1011.5
20260905133042 61 92 0.0 2.0 0.00 0.00 0.00 94 1011.2
20260905131559 60 0 0.0 3.0 0.00 0.00 0.00 96 1011.2
20260905130045 59 0 0.0 0.0 0.00 0.00 0.00 97 1011.3
20260905124548 59 0 0.0 1.0 0.00 0.00 0.00 97 1011.4
20260905123053 58 0 0.0 0.0 0.00 0.00 0.00 97 1011.4
20260905121545 57 0 0.0 0.0 0.00 0.00 0.00 97 1011.2
20260905120043 56 0 0.0 0.0 0.00 0.00 0.00 97 1011.4
20260905114545 56 0 0.0 0.0 0.00 0.00 0.00 97 1011.4
20260905113044 56 0 0.0 0.0 0.00 0.00 0.00 97 1011.1
20260905111551 55 0 0.0 0.0 0.00 0.00 0.00 97 1010.9
20260905110041 55 0 0.0 0.0 0.00 0.00 0.00 97 1010.8
20260905104540 55 0 0.0 2.0 0.00 0.00 0.00 97 1010.8
20260905103045 54 0 0.0 0.0 0.00 0.00 0.00 96 1010.7
20260905101552 53 0 0.0 0.0 0.00 0.00 0.00 96 1010.5
20260905100041 53 0 0.0 0.0 0.00 0.00 0.00 96 1010.4
20260905094543 53 0 0.0 0.0 0.00 0.00 0.00 96 1010.3
20260905093044 53 0 0.0 0.0 0.00 0.00 0.00 95 1010.3
20260905091541 53 0 0.0 0.0 0.00 0.00 0.00 95 1010.3
20260905090049 53 118 0.0 2.0 0.00 0.00 0.00 95 1010.2
20260905084600 54 0 0.0 0.0 0.00 0.00 0.00 95 1010.3
20260905083041 54 0 0.0 0.0 0.00 0.00 0.00 95 1010.2
20260905081544 54 0 0.0 0.0 0.00 0.00 0.00 95 1010.2
20260905080041 54 0 0.0 0.0 0.00 0.00 0.00 95 1010.2
20260905074544 54 0 0.0 0.0 0.00 0.00 0.00 95 1010.1
20260905073043 55 0 0.0 0.0 0.00 0.00 0.00 94 1010.3
20260905071541 55 0 0.0 0.0 0.00 0.00 0.00 95 1010.4
20260905070043 55 0 0.0 0.0 0.00 0.00 0.00 95 1010.4
20260905064544 56 0 0.0 0.0 0.00 0.00 0.00 94 1010.7
20260905063049 56 0 0.0 0.0 0.00 0.00 0.00 94 1010.7
20260905061541 56 0 0.0 0.0 0.00 0.00 0.00 94 1010.7
20260905060044 56 0 0.0 1.0 0.00 0.00 0.00 94 1010.7
20260905054546 57 0 0.0 0.0 0.00 0.00 0.00 94 1010.6
20260905053050 57 0 0.0 0.0 0.00 0.00 0.00 93 1010.6
20260905051542 57 0 0.0 0.0 0.00 0.00 0.00 93 1010.6
20260905050043 58 0 0.0 2.0 0.00 0.00 0.00 93 1010.7
20260905044548 58 0 0.0 0.0 0.00 0.00 0.00 93 1010.8
20260905043047 58 0 0.0 0.0 0.00 0.00 0.00 92 1010.9
20260905041542 59 0 0.0 0.0 0.00 0.00 0.00 92 1010.8
20260905040048 59 0 0.0 0.0 0.00 0.00 0.00 91 1010.9
20260905034547 60 0 0.0 0.0 0.00 0.00 0.00 90 1010.9
20260905033042 61 0 0.0 0.0 0.00 0.00 0.00 90 1010.9
20260905031542 61 0 0.0 0.0 0.00 0.00 0.00 89 1011.0
20260905030043 62 0 0.0 0.0 0.00 0.00 0.00 88 1010.9
20260905024606 62 0 0.0 0.0 0.00 0.00 0.00 87 1011.1
20260905023045 63 0 0.0 0.0 0.00 0.00 0.00 86 1011.2
20260905021543 63 0 0.0 0.0 0.00 0.00 0.00 85 1011.3
20260905020051 63 0 0.0 1.0 0.00 0.00 0.00 85 1011.4
20260905014545 64 0 0.0 0.0 0.00 0.00 0.00 87 1011.6
20260905013051 64 0 0.0 1.0 0.00 0.00 0.00 86 1011.4
20260905011553 64 0 0.0 1.0 0.00 0.00 0.00 85 1011.5
20260905010044 64 0 0.0 2.0 0.00 0.00 0.00 86 1011.4
20260905004550 64 0 0.0 2.0 0.00 0.00 0.00 87 1011.5
20260905003042 64 0 0.0 3.0 0.00 0.00 0.00 87 1011.4
20260905001544 64 0 0.0 1.0 0.00 0.00 0.00 85 1011.4
20260905000044 64 0 0.0 0.0 0.00 0.00 0.00 84 1011.1
20260904234550 65 0 0.0 2.0 0.00 0.00 0.00 83 1010.9
20260904233054 66 0 0.0 0.0 0.00 0.00 0.00 81 1010.8
20260904231540 67 0 0.0 1.0 0.00 0.00 0.00 79 1010.7
20260904230048 68 0 0.0 0.0 0.00 0.00 0.00 75 1010.6
20260904224547 68 0 0.0 2.0 0.00 0.00 0.00 74 1010.8